Home > Weather > Lahore > Past weeks

Flag for Pakistan Weather for the Past 2 Weeks in Lahore, Pakistan

Now
64 °F

Clear.


Feels Like: 64 °F
Forecast: 49 / 67 °F
Wind: 5 mph from Northwest

Location: Lahore Airport

Current Time: Feb 9, 2016 at 1:05:02 PM

Latest Report: Feb 9, 2016 at 12:25 PM


Visibility: 1 mi

Pressure: 30.04 "Hg

Humidity: 52%

Dew point: 46 °F

Location of LahoreLocation

Historic Weather in Lahore — Graph

°F

Lahore Temperature Yesterday

Maximum temperature yesterday: 72 °F (at 2:55 PM)
Minimum temperature yesterday: 48 °F (at 6:55 AM)
Average temperature yesterday: 61 °F

High & Low Weather Summary for the Past Weeks

 TemperatureHumidityPressure
High75 °F (Feb 5, 1:55 PM)100% (Jan 26, 12:55 AM)30.15 "Hg (Jan 26, 12:55 AM)
Low41 °F (Jan 26, 4:55 AM)25% (Feb 4, 3:30 PM)29.74 "Hg (Jan 26, 12:00 PM)
Average58 °F67%30.03 "Hg
* Reported Jan 25 11:25 AM — Feb 9 11:55 AM, Lahore, Weather by CustomWeather, © 2016

Note: Actual official high and low records may vary slightly from our data, if they occured in-between our weather recording intervals... More about our weather records

Advertising

Lahore Weather History for the Previous 24 Hours

 ConditionsComfort  
Time TempWeatherWind HumidityBarometerVisibility
11:55 AM
Tue, Feb 9
64 °FClear.5 mph52%30.04 "Hg1 mi
10:55 AM61 °FClear.6 mph59%30.07 "Hg1 mi
10:25 AM59 °FClear.5 mph63%30.07 "Hg1 mi
9:55 AM57 °FClear.6 mph67%30.07 "Hg1 mi
9:25 AM54 °FClear.No wind77%30.04 "Hg1 mi
8:55 AM52 °FFog.No wind82%30.04 "Hg1 mi
8:25 AM50 °FFog.No wind88%30.04 "Hg1 mi
7:59 AM48 °FFog.No wind94%30.04 "Hg1 mi
7:30 AM46 °FFog.No wind93%30.04 "Hg0 mi
7:00 AM46 °FFog.No wind87%30.01 "Hg1 mi
4:55 AM50 °FFog.No wind82%30.01 "Hg1 mi
4:30 AM52 °FFog.No wind82%30.01 "Hg1 mi
4:00 AM52 °FFog.No wind82%30.01 "Hg1 mi
3:30 AM54 °FFog.No wind82%30.01 "Hg1 mi
3:00 AM54 °FRain. Smoke.No wind82%30.01 "Hg2 mi
2:30 AM55 °FRain. Smoke.No wind77%30.04 "Hg2 mi
2:00 AM55 °FRain. Smoke.No wind77%30.04 "Hg2 mi
1:30 AM55 °FRain. Smoke.No wind77%30.04 "Hg2 mi
1:00 AM55 °FClear.No wind77%30.04 "Hg2 mi
12:30 AM57 °FClear.No wind77%30.04 "Hg2 mi
12:00 AM57 °FClear.No wind77%30.04 "Hg2 mi
11:30 PM
Mon, Feb 8
59 °FClear.No wind77%30.07 "Hg2 mi
11:00 PM59 °FClear.No wind77%30.07 "Hg2 mi
10:30 PM61 °FClear.No wind72%30.07 "Hg2 mi
9:55 PM61 °FClear.No wind72%30.07 "Hg2 mi
9:25 PM63 °FClear.No wind68%30.07 "Hg2 mi
8:55 PM63 °FClear.No wind68%30.07 "Hg2 mi
8:30 PM64 °FClear.No wind64%30.07 "Hg2 mi
7:55 PM64 °FClear.No wind64%30.07 "Hg2 mi
7:25 PM64 °FClear.No wind64%30.07 "Hg2 mi
6:55 PM66 °FClear.No wind60%30.07 "Hg2 mi
6:25 PM66 °FClear.No wind60%30.07 "Hg2 mi
5:55 PM68 °FClear.5 mph56%30.04 "Hg2 mi
5:25 PM68 °FClear.5 mph53%30.04 "Hg2 mi
4:25 PM72 °FHaze.5 mph47%30.04 "Hg2 mi
3:55 PM72 °FHaze.3 mph47%30.04 "Hg2 mi
3:25 PM72 °FHaze.3 mph47%30.04 "Hg2 mi
2:55 PM72 °FClear.No wind47%30.07 "Hg2 mi
1:55 PM70 °FHaze.3 mph50%30.07 "Hg2 mi
1:25 PM70 °FClear.5 mph50%30.09 "Hg2 mi
Weather by CustomWeather, © 2016

See weather overviewHow to use our weather pages